Tianqi Xingzuo 1-33

operational
NORAD ID: 62368 Int'l Des: 2024-245 Owner: GUOG Country: CN Constellation: tianqi
LEOCIRCULAR

关于 Tianqi Xingzuo 1-33

正在加载描述...

实时位置

正在加载3D地球...

即将过境

高度历史

Altitude vs Time

uPlot chart will show altitude changes over time

两行轨道根数

1 62368U 24245D 26063.14911265 .00000097 00000-0 15430-3 0 9990
2 62368 44.9845 68.8698 0009898 243.7464 116.2352 13.99178995 61637
Epoch: Mar 4, 2026 • Age: 22 hours

当前状态

高度 902.0 km
速度 7.40 km/s
星下点 -28.76°S, 103.77°W
发射日期 Dec 19, 2024
运行时间 1.2 years
类型 other

技术详情

分类 Payload
质量 40.00 kg
干质量 40.00 kg
总质量 40.00 kg
长度 0.50 m
直径 0.30 m
跨度 0.50 m
形状 Box
制造商 ASES
平台类型 StarLightB
阶段状态 In Orbit
所有者/国家 GUOG/CN

大型星座

Loading constellations...